Flag for U.S.A. Weather past 2 weeks in San Luis Obispo, California, U.S.A.

Now
51 °F

Clear.


Feels Like: 48 °F
Forecast: 45 / 69 °F
Wind: 9 mph from North

Location: San Luis Obispo County-Mc Chesney Field

Current Time: Apr 26, 2015 at 3:54:45 AM

Latest Report: Apr 26, 2015 at 2:56 AM


Visibility: 10 mi

Pressure: 30.03 "Hg

Humidity: 71%

Dew point: 42 °F

Location of San Luis ObispoLocation

Historic Weather in San Luis Obispo — Graph

°F

San Luis Obispo temperature yesterday

Maximum temperature yesterday: 61 °F (at 11:56 AM)
Minimum temperature yesterday: 48 °F (at 2:56 AM)
Average temperature yesterday: 53 °F

Past Weeks' High & Low Weather Summary

 TemperatureHumidityPressure
High83 °F (Apr 17, 12:56 PM)100% (Apr 13, 2:56 AM)30.19 "Hg (Apr 13, 2:56 AM)
Low42 °F (Apr 11, 6:56 AM)6% (Apr 14, 3:56 PM)29.86 "Hg (Apr 20, 4:56 PM)
Average58 °F65%29.99 "Hg
* Reported Apr 11 1:56 AM — Apr 26 1:56 AM, San Luis Obispo, Weather by CustomWeather, © 2015

Note: Actual official high and low records may vary slightly from our data, if they occured in-between our weather recording intervals... More about our weather records

Advertising

San Luis Obispo weather history for previous 24 hours

 ConditionsComfort  
Time TempWeatherWind HumidityBarometerVisibility
1:56 AM
Sun, Apr 26
49 °FClear.12 mph90%30.04 "Hg10 mi
12:56 AM50 °FClear.12 mph89%30.04 "Hg10 mi
11:56 PM
Sat, Apr 25
50 °FClear.12 mph89%30.04 "Hg10 mi
10:56 PM51 °FClear.7 mph86%30.04 "Hg10 mi
9:56 PM51 °FClear.10 mph86%30.04 "Hg10 mi
8:56 PM51 °FPassing clouds.8 mph86%30.02 "Hg10 mi
7:56 PM53 °FOvercast.15 mph80%30.01 "Hg10 mi
6:56 PM54 °FPartly sunny.12 mph77%29.99 "Hg10 mi
5:56 PM55 °FPartly sunny.18 mph74%29.99 "Hg10 mi
4:56 PM56 °FMostly cloudy.20 mph72%29.98 "Hg10 mi
3:56 PM59 °FPartly sunny.21 mph67%29.98 "Hg10 mi
2:56 PM59 °FPartly sunny.20 mph72%29.98 "Hg10 mi
1:56 PM59 °FOvercast.18 mph72%29.98 "Hg10 mi
12:56 PM59 °FMostly cloudy.20 mph78%29.98 "Hg10 mi
11:56 AM61 °FPartly sunny.18 mph78%29.98 "Hg10 mi
10:56 AM58 °FFog.5 mph93%29.98 "Hg5 mi
9:56 AM52 °FRain. Fog.No wind100%29.99 "Hg1 mi
8:56 AM51 °FLight rain. Fog.9 mph96%29.98 "Hg1 mi
7:56 AM51 °FLight rain. Fog.5 mph96%29.99 "Hg2 mi
6:56 AM50 °FLight rain. Fog.No wind96%30.00 "Hg2 mi
5:56 AM51 °FOvercast.5 mph86%30.00 "Hg9 mi
4:56 AM51 °FOvercast.3 mph80%30.01 "Hg10 mi
3:56 AM50 °FMostly cloudy.5 mph80%30.01 "Hg10 mi
Weather by CustomWeather, © 2015

See weather overviewHow to use our weather pages